Year,Month,Day,Hour,Minute,Value (Times are PST for temperature in C)
2019,01,02,00,00,-9.90
2019,01,02,00,01,-9.90
2019,01,02,00,02,-9.90
2019,01,02,00,03,-9.90
2019,01,02,00,04,-9.90
2019,01,02,00,05,-9.90
2019,01,02,00,06,-9.90
2019,01,02,00,07,-9.90
2019,01,02,00,08,-9.90
2019,01,02,00,09,-9.80
2019,01,02,00,10,-9.80
2019,01,02,00,11,-9.80
2019,01,02,00,12,-9.90
2019,01,02,00,13,-9.90
2019,01,02,00,14,-9.90
2019,01,02,00,15,-9.90
2019,01,02,00,16,-10.00
2019,01,02,00,17,-10.00
2019,01,02,00,18,-10.10
2019,01,02,00,19,-10.10
2019,01,02,00,20,-10.10
2019,01,02,00,21,-10.20
2019,01,02,00,22,-10.20
2019,01,02,00,23,-10.20
2019,01,02,00,24,-10.20
2019,01,02,00,25,-10.30
2019,01,02,00,26,-10.30
2019,01,02,00,27,-10.30
2019,01,02,00,28,-10.30
2019,01,02,00,29,-10.30
2019,01,02,00,30,-10.30
2019,01,02,00,31,-10.30
2019,01,02,00,32,-10.30
2019,01,02,00,33,-10.30
2019,01,02,00,34,-10.30
2019,01,02,00,35,-10.30
2019,01,02,00,36,-10.30
2019,01,02,00,37,-10.30
2019,01,02,00,38,-10.30
2019,01,02,00,39,-10.30
2019,01,02,00,40,-10.30
2019,01,02,00,41,-10.30
2019,01,02,00,42,-10.30
2019,01,02,00,43,-10.30
2019,01,02,00,44,-10.30
2019,01,02,00,45,-10.30
2019,01,02,00,46,-10.30
2019,01,02,00,47,-10.30
2019,01,02,00,48,-10.30
2019,01,02,00,49,-10.40
2019,01,02,00,50,-10.40
2019,01,02,00,51,-10.40
2019,01,02,00,52,-10.40
2019,01,02,00,53,-10.40
2019,01,02,00,54,-10.40
2019,01,02,00,55,-10.50
2019,01,02,00,56,-10.50
2019,01,02,00,57,-10.50
2019,01,02,00,58,-10.60
2019,01,02,00,59,-10.60
2019,01,02,01,00,-10.60
2019,01,02,01,01,-10.60
2019,01,02,01,02,-10.50
2019,01,02,01,03,-10.50
2019,01,02,01,04,-10.50
2019,01,02,01,05,-10.50
2019,01,02,01,06,-10.50
2019,01,02,01,07,-10.50
2019,01,02,01,08,-10.50
2019,01,02,01,09,-10.40
2019,01,02,01,10,-10.40
2019,01,02,01,11,-10.40
2019,01,02,01,12,-10.40
2019,01,02,01,13,-10.40
2019,01,02,01,14,-10.40
2019,01,02,01,15,-10.40
2019,01,02,01,16,-10.40
2019,01,02,01,17,-10.40
2019,01,02,01,18,-10.40
2019,01,02,01,19,-10.40
2019,01,02,01,20,-10.40
2019,01,02,01,21,-10.40
2019,01,02,01,22,-10.50
2019,01,02,01,23,-10.50
2019,01,02,01,24,-10.50
2019,01,02,01,25,-10.50
2019,01,02,01,26,-10.50
2019,01,02,01,27,-10.50
2019,01,02,01,28,-10.50
2019,01,02,01,29,-10.50
2019,01,02,01,30,-10.50
2019,01,02,01,31,-10.40
2019,01,02,01,32,-10.40
2019,01,02,01,33,-10.40
2019,01,02,01,34,-10.40
2019,01,02,01,35,-10.40
2019,01,02,01,36,-10.40
2019,01,02,01,37,-10.40
2019,01,02,01,38,-10.50
2019,01,02,01,39,-10.40
2019,01,02,01,40,-10.50
2019,01,02,01,41,-10.50
2019,01,02,01,42,-10.50
2019,01,02,01,43,-10.50
2019,01,02,01,44,-10.60
2019,01,02,01,45,-10.60
2019,01,02,01,46,-10.60
2019,01,02,01,47,-10.60
2019,01,02,01,48,-10.60
2019,01,02,01,49,-10.60
2019,01,02,01,50,-10.60
2019,01,02,01,51,-10.70
2019,01,02,01,52,-10.70
2019,01,02,01,53,-10.70
2019,01,02,01,54,-10.70
2019,01,02,01,55,-10.70
2019,01,02,01,56,-10.70
2019,01,02,01,57,-10.70
2019,01,02,01,58,-10.70
2019,01,02,01,59,-10.70
2019,01,02,02,00,-10.70
2019,01,02,02,01,-10.70
2019,01,02,02,02,-10.80
2019,01,02,02,03,-10.80
2019,01,02,02,04,-10.80
2019,01,02,02,05,-10.90
2019,01,02,02,06,-10.90
2019,01,02,02,07,-10.90
2019,01,02,02,08,-10.90
2019,01,02,02,09,-10.90
2019,01,02,02,10,-10.90
2019,01,02,02,11,-10.90
2019,01,02,02,12,-10.90
2019,01,02,02,13,-10.90
2019,01,02,02,14,-10.90
2019,01,02,02,15,-10.90
2019,01,02,02,16,-10.90
2019,01,02,02,17,-10.90
2019,01,02,02,18,-10.90
2019,01,02,02,19,-10.90
2019,01,02,02,20,-10.90
2019,01,02,02,21,-10.90
2019,01,02,02,22,-10.90
2019,01,02,02,23,-11.00
2019,01,02,02,24,-11.00
2019,01,02,02,25,-11.00
2019,01,02,02,26,-11.10
2019,01,02,02,27,-11.10
2019,01,02,02,28,-11.20
2019,01,02,02,29,-11.20
2019,01,02,02,30,-11.30
2019,01,02,02,31,-11.30
2019,01,02,02,32,-11.40
2019,01,02,02,33,-11.40
2019,01,02,02,34,-11.40
2019,01,02,02,35,-11.50
2019,01,02,02,36,-11.50
2019,01,02,02,37,-11.50
2019,01,02,02,38,-11.50
2019,01,02,02,39,-11.50
2019,01,02,02,40,-11.60
2019,01,02,02,41,-11.60
2019,01,02,02,42,-11.70
2019,01,02,02,43,-11.70
2019,01,02,02,44,-11.70
2019,01,02,02,45,-11.70
2019,01,02,02,46,-11.70
2019,01,02,02,47,-11.70
2019,01,02,02,48,-11.70
2019,01,02,02,49,-11.70
2019,01,02,02,50,-11.70
2019,01,02,02,51,-11.60
2019,01,02,02,52,-11.60
2019,01,02,02,53,-11.50
2019,01,02,02,54,-11.50
2019,01,02,02,55,-11.40
2019,01,02,02,56,-11.40
2019,01,02,02,57,-11.40
2019,01,02,02,58,-11.40
2019,01,02,02,59,-11.30
2019,01,02,03,00,-11.30
2019,01,02,03,01,-11.30
2019,01,02,03,02,-11.30
2019,01,02,03,03,-11.30
2019,01,02,03,04,-11.30
2019,01,02,03,05,-11.30
2019,01,02,03,06,-11.30
2019,01,02,03,07,-11.30
2019,01,02,03,08,-11.30
2019,01,02,03,09,-11.30
2019,01,02,03,10,-11.30
2019,01,02,03,11,-11.30
2019,01,02,03,12,-11.30
2019,01,02,03,13,-11.30
2019,01,02,03,14,-11.30
2019,01,02,03,15,-11.30
2019,01,02,03,16,-11.30
2019,01,02,03,17,-11.30
2019,01,02,03,18,-11.30
2019,01,02,03,19,-11.30
2019,01,02,03,20,-11.30
2019,01,02,03,21,-11.30
2019,01,02,03,22,-11.30
2019,01,02,03,23,-11.30
2019,01,02,03,24,-11.30
2019,01,02,03,25,-11.30
2019,01,02,03,26,-11.40
2019,01,02,03,27,-11.40
2019,01,02,03,28,-11.40
2019,01,02,03,29,-11.50
2019,01,02,03,30,-11.50
2019,01,02,03,31,-11.60
2019,01,02,03,32,-11.60
2019,01,02,03,33,-11.60
2019,01,02,03,34,-11.60
2019,01,02,03,35,-11.60
2019,01,02,03,36,-11.70
2019,01,02,03,37,-11.70
2019,01,02,03,38,-11.70
2019,01,02,03,39,-11.70
2019,01,02,03,40,-11.80
2019,01,02,03,41,-11.80
2019,01,02,03,42,-11.80
2019,01,02,03,43,-11.80
2019,01,02,03,44,-11.80
2019,01,02,03,45,-11.80
2019,01,02,03,46,-11.80
2019,01,02,03,47,-11.80
2019,01,02,03,48,-11.80
2019,01,02,03,49,-11.80
2019,01,02,03,50,-11.90
2019,01,02,03,51,-11.90
2019,01,02,03,52,-11.90
2019,01,02,03,53,-11.90
2019,01,02,03,54,-11.90
2019,01,02,03,55,-11.80
2019,01,02,03,56,-11.80
2019,01,02,03,57,-11.80
2019,01,02,03,58,-11.80
2019,01,02,03,59,-11.80
2019,01,02,04,00,-11.80
2019,01,02,04,01,-11.80
2019,01,02,04,02,-11.80
2019,01,02,04,03,-11.80
2019,01,02,04,04,-11.80
2019,01,02,04,05,-11.70
2019,01,02,04,06,-11.60
2019,01,02,04,07,-11.60
2019,01,02,04,08,-11.60
2019,01,02,04,09,-11.60
2019,01,02,04,10,-11.60
2019,01,02,04,11,-11.60
2019,01,02,04,12,-11.60
2019,01,02,04,13,-11.60
2019,01,02,04,14,-11.60
2019,01,02,04,15,-11.60
2019,01,02,04,16,-11.60
2019,01,02,04,17,-11.60
2019,01,02,04,18,-11.60
2019,01,02,04,19,-11.60
2019,01,02,04,20,-11.50
2019,01,02,04,21,-11.50
2019,01,02,04,22,-11.50
2019,01,02,04,23,-11.50
2019,01,02,04,24,-11.50
2019,01,02,04,25,-11.60
2019,01,02,04,26,-11.60
2019,01,02,04,27,-11.60
2019,01,02,04,28,-11.60
2019,01,02,04,29,-11.60
2019,01,02,04,30,-11.60
2019,01,02,04,31,-11.60
2019,01,02,04,32,-11.70
2019,01,02,04,33,-11.70
2019,01,02,04,34,-11.70
2019,01,02,04,35,-11.70
2019,01,02,04,36,-11.70
2019,01,02,04,37,-11.70
2019,01,02,04,38,-11.70
2019,01,02,04,39,-11.70
2019,01,02,04,40,-11.80
2019,01,02,04,41,-11.80
2019,01,02,04,42,-11.80
2019,01,02,04,43,-11.80
2019,01,02,04,44,-11.80
2019,01,02,04,45,-11.80
2019,01,02,04,46,-11.80
2019,01,02,04,47,-11.80
2019,01,02,04,48,-11.80
2019,01,02,04,49,-11.80
2019,01,02,04,50,-11.90
2019,01,02,04,51,-11.90
2019,01,02,04,52,-11.90
2019,01,02,04,53,-11.90
2019,01,02,04,54,-11.90
2019,01,02,04,55,-11.90
2019,01,02,04,56,-11.90
2019,01,02,04,57,-12.00
2019,01,02,04,58,-12.00
2019,01,02,04,59,-12.00
2019,01,02,05,00,-12.00
2019,01,02,05,01,-12.00
2019,01,02,05,02,-12.10
2019,01,02,05,03,-12.10
2019,01,02,05,04,-12.10
2019,01,02,05,05,-12.10
2019,01,02,05,06,-12.10
2019,01,02,05,07,-12.10
2019,01,02,05,08,-12.10
2019,01,02,05,09,-12.10
2019,01,02,05,10,-12.00
2019,01,02,05,11,-12.10
2019,01,02,05,12,-12.00
2019,01,02,05,13,-12.00
2019,01,02,05,14,-12.00
2019,01,02,05,15,-12.00
2019,01,02,05,16,-12.10
2019,01,02,05,17,-12.00
2019,01,02,05,18,-12.10
2019,01,02,05,19,-12.10
2019,01,02,05,20,-12.10
2019,01,02,05,21,-12.10
2019,01,02,05,22,-12.10
2019,01,02,05,23,-12.10
2019,01,02,05,24,-12.10
2019,01,02,05,25,-12.10
2019,01,02,05,26,-12.10
2019,01,02,05,27,-12.10
2019,01,02,05,28,-12.10
2019,01,02,05,29,-12.10
2019,01,02,05,30,-12.10
2019,01,02,05,31,-12.10
2019,01,02,05,32,-12.20
2019,01,02,05,33,-12.20
2019,01,02,05,34,-12.20
2019,01,02,05,35,-12.20
2019,01,02,05,36,-12.20
2019,01,02,05,37,-12.20
2019,01,02,05,38,-12.20
2019,01,02,05,39,-12.20
2019,01,02,05,40,-12.20
2019,01,02,05,41,-12.20
2019,01,02,05,42,-12.20
2019,01,02,05,43,-12.20
2019,01,02,05,44,-12.20
2019,01,02,05,45,-12.20
2019,01,02,05,46,-12.10
2019,01,02,05,47,-12.10
2019,01,02,05,48,-12.10
2019,01,02,05,49,-12.10
2019,01,02,05,50,-12.10
2019,01,02,05,51,-12.10
2019,01,02,05,52,-12.20
2019,01,02,05,53,-12.20
2019,01,02,05,54,-12.20
2019,01,02,05,55,-12.20
2019,01,02,05,56,-12.20
2019,01,02,05,57,-12.20
2019,01,02,05,58,-12.20
2019,01,02,05,59,-12.30
2019,01,02,06,00,-12.30
2019,01,02,06,01,-12.30
2019,01,02,06,02,-12.30
2019,01,02,06,03,-12.30
2019,01,02,06,04,-12.30
2019,01,02,06,05,-12.30
2019,01,02,06,06,-12.40
2019,01,02,06,07,-12.40
2019,01,02,06,08,-12.40
2019,01,02,06,09,-12.40
2019,01,02,06,10,-12.50
2019,01,02,06,11,-12.50
2019,01,02,06,12,-12.50
2019,01,02,06,13,-12.60
2019,01,02,06,14,-12.60
2019,01,02,06,15,-12.60
2019,01,02,06,16,-12.60
2019,01,02,06,17,-12.60
2019,01,02,06,18,-12.60
2019,01,02,06,19,-12.70
2019,01,02,06,20,-12.70
2019,01,02,06,21,-12.70
2019,01,02,06,22,-12.70
2019,01,02,06,23,-12.70
2019,01,02,06,24,-12.70
2019,01,02,06,25,-12.70
2019,01,02,06,26,-12.70
2019,01,02,06,27,-12.70
2019,01,02,06,28,-12.70
2019,01,02,06,29,-12.70
2019,01,02,06,30,-12.70
2019,01,02,06,31,-12.80
2019,01,02,06,32,-12.80
2019,01,02,06,33,-12.80
2019,01,02,06,34,-12.80
2019,01,02,06,35,-12.80
2019,01,02,06,36,-12.80
2019,01,02,06,37,-12.80
2019,01,02,06,38,-12.80
2019,01,02,06,39,-12.90
2019,01,02,06,40,-12.90
2019,01,02,06,41,-12.90
2019,01,02,06,42,-12.90
2019,01,02,06,43,-12.90
2019,01,02,06,44,-12.90
2019,01,02,06,45,-12.90
2019,01,02,06,46,-12.90
2019,01,02,06,47,-12.90
2019,01,02,06,48,-13.00
2019,01,02,06,49,-13.00
2019,01,02,06,50,-13.00
2019,01,02,06,51,-12.90
2019,01,02,06,52,-12.90
2019,01,02,06,53,-12.90
2019,01,02,06,54,-12.90
2019,01,02,06,55,-12.90
2019,01,02,06,56,-12.90
2019,01,02,06,57,-12.90
2019,01,02,06,58,-12.90
2019,01,02,06,59,-12.90
2019,01,02,07,00,-12.90
2019,01,02,07,01,-12.90
2019,01,02,07,02,-12.90
2019,01,02,07,03,-12.90
2019,01,02,07,04,-12.90
2019,01,02,07,05,-12.90
2019,01,02,07,06,-12.90
2019,01,02,07,07,-12.90
2019,01,02,07,08,-12.90
2019,01,02,07,09,-12.90
2019,01,02,07,10,-12.90
2019,01,02,07,11,-13.00
2019,01,02,07,12,-13.00
2019,01,02,07,13,-13.00
2019,01,02,07,14,-12.90
2019,01,02,07,15,-12.90
2019,01,02,07,16,-12.90
2019,01,02,07,17,-12.90
2019,01,02,07,18,-12.90
2019,01,02,07,19,-12.90
2019,01,02,07,20,-12.90
2019,01,02,07,21,-12.90
2019,01,02,07,22,-12.90
2019,01,02,07,23,-12.90
2019,01,02,07,24,-12.90
2019,01,02,07,25,-12.90
2019,01,02,07,26,-13.00
2019,01,02,07,27,-13.00
2019,01,02,07,28,-13.10
2019,01,02,07,29,-13.10
2019,01,02,07,30,-13.10
2019,01,02,07,31,-13.20
2019,01,02,07,32,-13.20
2019,01,02,07,33,-13.20
2019,01,02,07,34,-13.30
2019,01,02,07,35,-13.30
2019,01,02,07,36,-13.30
2019,01,02,07,37,-13.40
2019,01,02,07,38,-13.40
2019,01,02,07,39,-13.40
2019,01,02,07,40,-13.50
2019,01,02,07,41,-13.50
2019,01,02,07,42,-13.50
2019,01,02,07,43,-13.60
2019,01,02,07,44,-13.60
2019,01,02,07,45,-13.60
2019,01,02,07,46,-13.60
2019,01,02,07,47,-13.60
2019,01,02,07,48,-13.60
2019,01,02,07,49,-13.60
2019,01,02,07,50,-13.60
2019,01,02,07,51,-13.70
2019,01,02,07,52,-13.70
2019,01,02,07,53,-13.70
2019,01,02,07,54,-13.80
2019,01,02,07,55,-13.80
2019,01,02,07,56,-13.90
2019,01,02,07,57,-13.90
2019,01,02,07,58,-13.90
2019,01,02,07,59,-13.90
2019,01,02,08,00,-13.90
2019,01,02,08,01,-13.80
2019,01,02,08,02,-13.70
2019,01,02,08,03,-13.70
2019,01,02,08,04,-13.60
2019,01,02,08,05,-13.60
2019,01,02,08,06,-13.60
2019,01,02,08,07,-13.50
2019,01,02,08,08,-13.50
2019,01,02,08,09,-13.40
2019,01,02,08,10,-13.50
2019,01,02,08,11,-13.60
2019,01,02,08,12,-13.70
2019,01,02,08,13,-13.80
2019,01,02,08,14,-13.80
2019,01,02,08,15,-13.90
2019,01,02,08,16,-13.90
2019,01,02,08,17,-14.00
2019,01,02,08,18,-14.00
2019,01,02,08,19,-14.10
2019,01,02,08,20,-14.10
2019,01,02,08,21,-14.20
2019,01,02,08,22,-14.20
2019,01,02,08,23,-14.30
2019,01,02,08,24,-14.30
2019,01,02,08,25,-14.30
2019,01,02,08,26,-14.30
2019,01,02,08,27,-14.40
2019,01,02,08,28,-14.40
2019,01,02,08,29,-14.40
2019,01,02,08,30,-14.50
2019,01,02,08,31,-14.50
2019,01,02,08,32,-14.50
2019,01,02,08,33,-14.60
2019,01,02,08,34,-14.60
2019,01,02,08,35,-14.60
2019,01,02,08,36,-14.60
2019,01,02,08,37,-14.60
2019,01,02,08,38,-14.70
2019,01,02,08,39,-14.70
2019,01,02,08,40,-14.70
2019,01,02,08,41,-14.70
2019,01,02,08,42,-14.70
2019,01,02,08,43,-14.70
2019,01,02,08,44,-14.80
2019,01,02,08,45,-14.80
2019,01,02,08,46,-14.80
2019,01,02,08,47,-14.70
2019,01,02,08,48,-14.70
2019,01,02,08,49,-14.70
2019,01,02,08,50,-14.60
2019,01,02,08,51,-14.60
2019,01,02,08,52,-14.60
2019,01,02,08,53,-14.60
2019,01,02,08,54,-14.50
2019,01,02,08,55,-14.50
2019,01,02,08,56,-14.50
2019,01,02,08,57,-14.40
2019,01,02,08,58,-14.40
2019,01,02,08,59,-14.40
2019,01,02,09,00,-14.40
2019,01,02,09,01,-14.40
2019,01,02,09,02,-14.40
2019,01,02,09,03,-14.40
2019,01,02,09,04,-14.40
2019,01,02,09,05,-14.40
2019,01,02,09,06,-14.40
2019,01,02,09,07,-14.40
2019,01,02,09,08,-14.40
2019,01,02,09,09,-14.40
2019,01,02,09,10,-14.40
2019,01,02,09,11,-14.50
2019,01,02,09,12,-14.50
2019,01,02,09,13,-14.50
2019,01,02,09,14,-14.60
2019,01,02,09,15,-14.60
2019,01,02,09,16,-14.60
2019,01,02,09,17,-14.70
2019,01,02,09,18,-14.70
2019,01,02,09,19,-14.70
2019,01,02,09,20,-14.70
2019,01,02,09,21,-14.80
2019,01,02,09,22,-14.80
2019,01,02,09,23,-14.80
2019,01,02,09,24,-14.90
2019,01,02,09,25,-14.90
2019,01,02,09,26,-14.90
2019,01,02,09,27,-14.90
2019,01,02,09,28,-15.00
2019,01,02,09,29,-15.00
2019,01,02,09,30,-15.00
2019,01,02,09,31,-15.00
2019,01,02,09,32,-15.10
2019,01,02,09,33,-15.10
2019,01,02,09,34,-15.10
2019,01,02,09,35,-15.10
2019,01,02,09,36,-15.10
2019,01,02,09,37,-15.10
2019,01,02,09,38,-15.10
2019,01,02,09,39,-15.10
2019,01,02,09,40,-15.10
2019,01,02,09,41,-15.10
2019,01,02,09,42,-15.10
2019,01,02,09,43,-15.10
2019,01,02,09,44,-15.10
2019,01,02,09,45,-15.10
2019,01,02,09,46,-15.10
2019,01,02,09,47,-15.10
2019,01,02,09,48,-15.10
2019,01,02,09,49,-15.10
2019,01,02,09,50,-15.10
2019,01,02,09,51,-15.10
2019,01,02,09,52,-15.10
2019,01,02,09,53,-15.10
2019,01,02,09,54,-15.00
2019,01,02,09,55,-15.00
2019,01,02,09,56,-15.00
2019,01,02,09,57,-15.00
2019,01,02,09,58,-15.00
2019,01,02,09,59,-15.00
2019,01,02,10,00,-15.00
2019,01,02,10,01,-14.90
2019,01,02,10,02,-14.90
2019,01,02,10,03,-14.90
2019,01,02,10,04,-14.90
2019,01,02,10,05,-14.90
2019,01,02,10,06,-14.90
2019,01,02,10,07,-14.90
2019,01,02,10,08,-14.80
2019,01,02,10,09,-14.80
2019,01,02,10,10,-14.90
2019,01,02,10,11,-14.80
2019,01,02,10,12,-14.90
2019,01,02,10,13,-14.90
2019,01,02,10,14,-14.90
2019,01,02,10,15,-14.90
2019,01,02,10,16,-14.90
2019,01,02,10,17,-14.90
2019,01,02,10,18,-14.90
2019,01,02,10,19,-14.90
2019,01,02,10,20,-14.90
2019,01,02,10,21,-15.00
2019,01,02,10,22,-15.00
2019,01,02,10,23,-15.00
2019,01,02,10,24,-15.10
2019,01,02,10,25,-15.10
2019,01,02,10,26,-15.10
2019,01,02,10,27,-15.10
2019,01,02,10,28,-15.10
2019,01,02,10,29,-15.20
2019,01,02,10,30,-15.20
2019,01,02,10,31,-15.20
2019,01,02,10,32,-15.20
2019,01,02,10,33,-15.20
2019,01,02,10,34,-15.20
2019,01,02,10,35,-15.30
2019,01,02,10,36,-15.30
2019,01,02,10,37,-15.30
2019,01,02,10,38,-15.30
2019,01,02,10,39,-15.30
2019,01,02,10,40,-15.30
2019,01,02,10,41,-15.30
2019,01,02,10,42,-15.30
2019,01,02,10,43,-15.30
2019,01,02,10,44,-15.20
2019,01,02,10,45,-15.20
2019,01,02,10,46,-15.20
2019,01,02,10,47,-15.10
2019,01,02,10,48,-14.90
2019,01,02,10,49,-14.90
2019,01,02,10,50,-14.80
2019,01,02,10,51,-14.70
2019,01,02,10,52,-14.70
2019,01,02,10,53,-14.60
2019,01,02,10,54,-14.60
2019,01,02,10,55,-14.50
2019,01,02,10,56,-14.50
2019,01,02,10,57,-14.40
2019,01,02,10,58,-14.40
2019,01,02,10,59,-14.40
2019,01,02,11,00,-14.30
2019,01,02,11,01,-14.30
2019,01,02,11,02,-14.30
2019,01,02,11,03,-14.30
2019,01,02,11,04,-14.30
2019,01,02,11,05,-14.20
2019,01,02,11,06,-14.20
2019,01,02,11,07,-14.20
2019,01,02,11,08,-14.20
2019,01,02,11,09,-14.20
2019,01,02,11,10,-14.20
2019,01,02,11,11,-14.20
2019,01,02,11,12,-14.20
2019,01,02,11,13,-14.30
2019,01,02,11,14,-14.30
2019,01,02,11,15,-14.40
2019,01,02,11,16,-14.50
2019,01,02,11,17,-14.50
2019,01,02,11,18,-14.60
2019,01,02,11,19,-14.60
2019,01,02,11,20,-14.50
2019,01,02,11,21,-14.50
2019,01,02,11,22,-14.40
2019,01,02,11,23,-14.40
2019,01,02,11,24,-14.30
2019,01,02,11,25,-14.30
2019,01,02,11,26,-14.40
2019,01,02,11,27,-14.50
2019,01,02,11,28,-14.60
2019,01,02,11,29,-14.70
2019,01,02,11,30,-14.70
2019,01,02,11,31,-14.80
2019,01,02,11,32,-14.90
2019,01,02,11,33,-15.10
2019,01,02,11,34,-15.20
2019,01,02,11,35,-15.20
2019,01,02,11,36,-15.30
2019,01,02,11,37,-15.30
2019,01,02,11,38,-15.30
2019,01,02,11,39,-15.40
2019,01,02,11,40,-15.40
2019,01,02,11,41,-15.40
2019,01,02,11,42,-15.40
2019,01,02,11,43,-15.40
2019,01,02,11,44,-15.40
2019,01,02,11,45,-15.40
2019,01,02,11,46,-15.40
2019,01,02,11,47,-15.40
2019,01,02,11,48,-15.40
2019,01,02,11,49,-15.40
2019,01,02,11,50,-15.40
2019,01,02,11,51,-15.40
2019,01,02,11,52,-15.50
2019,01,02,11,53,-15.40
2019,01,02,11,54,-15.50
2019,01,02,11,55,-15.50
2019,01,02,11,56,-15.50
2019,01,02,11,57,-15.50
2019,01,02,11,58,-15.50
2019,01,02,11,59,-15.50
2019,01,02,12,00,-15.50
2019,01,02,12,01,-15.60
2019,01,02,12,02,-15.60
2019,01,02,12,03,-15.60
2019,01,02,12,04,-15.60
2019,01,02,12,05,-15.60
2019,01,02,12,06,-15.60
2019,01,02,12,07,-15.60
2019,01,02,12,08,-15.70
2019,01,02,12,09,-15.70
2019,01,02,12,10,-15.70
2019,01,02,12,11,-15.70
2019,01,02,12,12,-15.70
2019,01,02,12,13,-15.80
2019,01,02,12,14,-15.80
2019,01,02,12,15,-15.80
2019,01,02,12,16,-15.80
2019,01,02,12,17,-15.90
2019,01,02,12,18,-15.90
2019,01,02,12,19,-15.90
2019,01,02,12,20,-16.00
2019,01,02,12,21,-16.00
2019,01,02,12,22,-16.00
2019,01,02,12,23,-16.10
2019,01,02,12,24,-16.10
2019,01,02,12,25,-16.10
2019,01,02,12,26,-16.10
2019,01,02,12,27,-16.10
2019,01,02,12,28,-16.10
2019,01,02,12,29,-16.10
2019,01,02,12,30,-16.20
2019,01,02,12,31,-16.20
2019,01,02,12,32,-16.20
2019,01,02,12,33,-16.20
2019,01,02,12,34,-16.20
2019,01,02,12,35,-16.30
2019,01,02,12,36,-16.30
2019,01,02,12,37,-16.30
2019,01,02,12,38,-16.30
2019,01,02,12,39,-16.40
2019,01,02,12,40,-16.40
2019,01,02,12,41,-16.40
2019,01,02,12,42,-16.40
2019,01,02,12,43,-16.40
2019,01,02,12,44,-16.50
2019,01,02,12,45,-16.50
2019,01,02,12,46,-16.60
2019,01,02,12,47,-16.60
2019,01,02,12,48,-16.60
2019,01,02,12,49,-16.60
2019,01,02,12,50,-16.70
2019,01,02,12,51,-16.70
2019,01,02,12,52,-16.80
2019,01,02,12,53,-16.80
2019,01,02,12,54,-16.80
2019,01,02,12,55,-16.80
2019,01,02,12,56,-16.90
2019,01,02,12,57,-16.90
2019,01,02,12,58,-16.90
2019,01,02,12,59,-16.90
2019,01,02,13,00,-16.90
2019,01,02,13,01,-16.90
2019,01,02,13,02,-16.90
2019,01,02,13,03,-17.10
2019,01,02,13,04,-17.10
2019,01,02,13,05,-17.20
2019,01,02,13,06,-17.20
2019,01,02,13,07,-17.20
2019,01,02,13,08,-17.30
2019,01,02,13,09,-17.30
2019,01,02,13,10,-17.30
2019,01,02,13,11,-17.30
2019,01,02,13,12,-17.30
2019,01,02,13,13,-17.30
2019,01,02,13,14,-17.30
2019,01,02,13,15,-17.40
2019,01,02,13,16,-17.40
2019,01,02,13,17,-17.40
2019,01,02,13,18,-17.40
2019,01,02,13,19,-17.50
2019,01,02,13,20,-17.50
2019,01,02,13,21,-17.50
2019,01,02,13,22,-17.50
2019,01,02,13,23,-17.60
2019,01,02,13,24,-17.60
2019,01,02,13,25,-17.60
2019,01,02,13,26,-17.60
2019,01,02,13,27,-17.60
2019,01,02,13,28,-17.60
2019,01,02,13,29,-17.60
2019,01,02,13,30,-17.50
2019,01,02,13,31,-17.50
2019,01,02,13,32,-17.50
2019,01,02,13,33,-17.40
2019,01,02,13,34,-17.40
2019,01,02,13,35,-17.30
2019,01,02,13,36,-17.30
2019,01,02,13,37,-17.20
2019,01,02,13,38,-17.10
2019,01,02,13,39,-17.00
2019,01,02,13,40,-17.00
2019,01,02,13,41,-16.90
2019,01,02,13,42,-16.80
2019,01,02,13,43,-16.80
2019,01,02,13,44,-16.70
2019,01,02,13,45,-16.70
2019,01,02,13,46,-16.60
2019,01,02,13,47,-16.50
2019,01,02,13,48,-16.50
2019,01,02,13,49,-16.40
2019,01,02,13,50,-16.40
2019,01,02,13,51,-16.30
2019,01,02,13,52,-16.30
2019,01,02,13,53,-16.30
2019,01,02,13,54,-16.30
2019,01,02,13,55,-16.30
2019,01,02,13,56,-16.40
2019,01,02,13,57,-16.40
2019,01,02,13,58,-16.40
2019,01,02,13,59,-16.50
2019,01,02,14,00,-16.60
2019,01,02,14,01,-16.60
2019,01,02,14,02,-16.70
2019,01,02,14,03,-16.80
2019,01,02,14,04,-16.80
2019,01,02,14,05,-16.90
2019,01,02,14,06,-16.90
2019,01,02,14,07,-17.00
2019,01,02,14,08,-17.10
2019,01,02,14,09,-17.10
2019,01,02,14,10,-17.20
2019,01,02,14,11,-17.20
2019,01,02,14,12,-17.30
2019,01,02,14,13,-17.30
2019,01,02,14,14,-17.30
2019,01,02,14,15,-17.40
2019,01,02,14,16,-17.40
2019,01,02,14,17,-17.40
2019,01,02,14,18,-17.50
2019,01,02,14,19,-17.50
2019,01,02,14,20,-17.60
2019,01,02,14,21,-17.60
2019,01,02,14,22,-17.60
2019,01,02,14,23,-17.60
2019,01,02,14,24,-17.70
2019,01,02,14,25,-17.70
2019,01,02,14,26,-17.70
2019,01,02,14,27,-17.70
2019,01,02,14,28,-17.70
2019,01,02,14,29,-17.70
2019,01,02,14,30,-17.70
2019,01,02,14,31,-17.70
2019,01,02,14,32,-17.70
2019,01,02,14,33,-17.70
2019,01,02,14,34,-17.70
2019,01,02,14,35,-17.70
2019,01,02,14,36,-17.70
2019,01,02,14,37,-17.80
2019,01,02,14,38,-17.80
2019,01,02,14,39,-17.80
2019,01,02,14,40,-17.80
2019,01,02,14,41,-17.80
2019,01,02,14,42,-16.50
2019,01,02,14,43,-0.30
2019,01,02,14,44,-0.40
2019,01,02,14,45,-0.40
2019,01,02,14,46,-0.50
2019,01,02,14,47,-0.50
2019,01,02,14,48,-0.60
2019,01,02,14,49,-0.70
2019,01,02,14,50,-0.70
2019,01,02,14,51,-0.70
2019,01,02,14,52,-0.80
2019,01,02,14,53,-0.80
2019,01,02,14,54,-0.80
2019,01,02,14,55,-0.80
2019,01,02,14,56,-0.90
2019,01,02,14,57,-0.90
2019,01,02,14,58,-0.90
2019,01,02,14,59,-0.90
2019,01,02,15,00,-0.80
2019,01,02,15,01,-0.80
2019,01,02,15,02,-0.60
2019,01,02,15,03,-0.40
2019,01,02,15,04,-3.40
2019,01,02,15,05,-17.70
2019,01,02,15,06,-17.60
2019,01,02,15,07,-17.50
2019,01,02,15,08,-17.40
2019,01,02,15,09,-17.30
2019,01,02,15,10,-17.20
2019,01,02,15,11,-17.20
2019,01,02,15,12,-17.10
2019,01,02,15,13,-17.00
2019,01,02,15,14,-16.90
2019,01,02,15,15,-16.80
2019,01,02,15,16,-16.70
2019,01,02,15,17,-16.60
2019,01,02,15,18,-16.60
2019,01,02,15,19,-16.60
2019,01,02,15,20,-16.60
2019,01,02,15,21,-16.60
2019,01,02,15,22,-16.60
2019,01,02,15,23,-16.60
2019,01,02,15,24,-16.60
2019,01,02,15,25,-16.60
2019,01,02,15,26,-16.60
2019,01,02,15,27,-16.60
2019,01,02,15,28,-16.70
2019,01,02,15,29,-16.70
2019,01,02,15,30,-16.80
2019,01,02,15,31,-16.90
2019,01,02,15,32,-17.00
2019,01,02,15,33,-17.10
2019,01,02,15,34,-17.20
2019,01,02,15,35,-17.30
2019,01,02,15,36,-17.40
2019,01,02,15,37,-17.40
2019,01,02,15,38,-17.50
2019,01,02,15,39,-17.50
2019,01,02,15,40,-17.50
2019,01,02,15,41,-17.60
2019,01,02,15,42,-17.60
2019,01,02,15,43,-17.60
2019,01,02,15,44,-17.60
2019,01,02,15,45,-17.60
2019,01,02,15,46,-17.60
2019,01,02,15,47,-17.60
2019,01,02,15,48,-17.60
2019,01,02,15,49,-17.60
2019,01,02,15,50,-17.60
2019,01,02,15,51,-17.60
2019,01,02,15,52,-17.70
2019,01,02,15,53,-17.70
2019,01,02,15,54,-17.70
2019,01,02,15,55,-17.70
2019,01,02,15,56,-17.70
2019,01,02,15,57,-17.70
2019,01,02,15,58,-17.80
2019,01,02,15,59,-17.80
2019,01,02,16,00,-17.80
2019,01,02,16,01,-17.80
2019,01,02,16,02,-17.80
2019,01,02,16,03,-0.80
2019,01,02,16,04,-0.10
2019,01,02,16,05,-0.10
2019,01,02,16,06,-0.10
2019,01,02,16,07,-0.10
2019,01,02,16,08,-0.10
2019,01,02,16,09,-17.10
2019,01,02,16,10,-17.80
2019,01,02,16,11,-17.70
2019,01,02,16,12,-17.70
2019,01,02,16,13,-17.60
2019,01,02,16,14,-17.60
2019,01,02,16,15,-17.50
2019,01,02,16,16,-17.40
2019,01,02,16,17,-17.40
2019,01,02,16,18,-17.30
2019,01,02,16,19,-17.20
2019,01,02,16,20,-17.20
2019,01,02,16,21,-17.10
2019,01,02,16,22,-17.00
2019,01,02,16,23,-16.90
2019,01,02,16,24,-16.80
2019,01,02,16,25,-16.80
2019,01,02,16,26,-16.80
2019,01,02,16,27,-16.80
2019,01,02,16,28,-16.80
2019,01,02,16,29,-17.00
2019,01,02,16,30,-17.20
2019,01,02,16,31,-17.30
2019,01,02,16,32,-17.50
2019,01,02,16,33,-17.50
2019,01,02,16,34,-17.60
2019,01,02,16,35,-17.70
2019,01,02,16,36,-15.80
2019,01,02,16,37,-0.10
2019,01,02,16,38,-0.20